Weather History for OKBK - March, 2013

Change the Weather History Date:

Thursday, March 14, 2013

  Actual Average Record
Temperature  
Mean Temperature 78 °F -  
Max Temperature 95 °F 83 °F 95 °F (2012)
Min Temperature 60 °F 60 °F 50 °F (1997)
Cooling Degree Days 12    
Growing Degree Days 28 (Base 50)    
Moisture  
Dew Point 34 °F    
Average Humidity 24    
Maximum Humidity 46    
Minimum Humidity 6    
Precipitation  
Precipitation 0.00 in 0.02 in - ()
Sea Level Pressure  
Sea Level Pressure 29.98 in    
Wind  
Wind Speed 6 mph ()    
Max Wind Speed 12 mph    
Max Gust Speed -    
Visibility 4.5 miles    
Events      
Averages and records for this station are not official NWS values.
T = Trace of Precipitation, MM = Missing Value Source: Averaged Metar Reports

Daily Weather History Graph

Daily Weather History Graph

Search for Another Location

Airport or City:

Trip Planner

Search our weather history database for the weather conditions in past years. The results will help you decide how hot, cold, wet, or windy it might be!

Date:

Astronomy

Mar. 14, 2013 Rise Set
Actual Time 5:59 AM AST 5:55 PM AST
Civil Twilight 5:35 AM AST 6:19 PM AST
Nautical Twilight 5:07 AM AST 6:47 PM AST
Astronomical Twilight 4:40 AM AST 7:14 PM AST
Moon 7:14 AM AST (3/14) 8:32 PM AST (3/14)
Length of Visible Light 12h 44m
Length of Day
11h 56m
Waxing Crescent, 7% of the Moon is Illuminated
Mar 14
Waxing Crescent
Mar 19
First Quarter
Mar 27
Full
Apr 3
Last Quarter
Apr 10
New

Hourly Weather History & Observations

Time (AST) Temp. Dew Point Humidity Pressure Visibility Wind Dir Wind Speed Gust Speed Precip Events Conditions
12:00 AM 66.2 °F 35.6 °F 32% 29.98 in - SSE 3.5 mph - N/A   Clear
1:00 AM 64.4 °F 35.6 °F 34% 29.98 in - South 6.9 mph - N/A   Clear
2:00 AM 62.6 °F 35.6 °F 37% 29.95 in - South 4.6 mph - N/A   Clear
3:00 AM 61 °F 35 °F 26% 29.96 in 6 mi South 6.9 mph - -  
3:00 AM 60.8 °F 35.6 °F 39% 29.95 in - South 6.9 mph - N/A   Clear
4:00 AM 60.8 °F 35.6 °F 39% 29.95 in - South 6.9 mph - N/A   Clear
5:00 AM 62.6 °F 33.8 °F 34% 29.95 in - SSE 6.9 mph - N/A   Clear
6:00 AM 60.8 °F 33.8 °F 36% 29.98 in 4.3 mi SSE 4.6 mph - N/A   Clear
7:00 AM 60.8 °F 35.6 °F 39% 29.98 in 4.3 mi SSW 6.9 mph - N/A   Clear
8:00 AM 69.8 °F 33.8 °F 27% 30.01 in 5.0 mi South 6.9 mph - N/A   Clear
9:00 AM 79 °F 27 °F 7% 30.03 in 4 mi SW 9.2 mph - -   Haze
9:00 AM 78.8 °F 26.6 °F 15% 30.01 in 4.3 mi SW 9.2 mph - N/A   Clear
10:00 AM 86.0 °F 24.8 °F 11% 30.01 in 4.3 mi WSW 11.5 mph - N/A   Clear
11:00 AM 91.4 °F 23.0 °F 8% 30.01 in 3.7 mi SW 10.4 mph - N/A   Clear
12:00 PM 93.2 °F 19.4 °F 7% 30.01 in 5.0 mi WSW 8.1 mph - N/A   Clear
1:00 PM 95.0 °F 19.4 °F 6% 29.98 in - SW 6.9 mph - N/A   Clear
2:00 PM 95.0 °F 19.4 °F 6% 29.95 in - WSW 3.5 mph - N/A   Clear
3:00 PM 88 °F 39 °F 10% 29.93 in 4 mi ESE 8.1 mph - -   Haze
3:00 PM 87.8 °F 39.2 °F 18% 29.95 in 4.3 mi ESE 8.1 mph - N/A   Clear
4:00 PM 84.2 °F 37.4 °F 19% 29.95 in 4.3 mi ESE 8.1 mph - N/A   Clear
5:00 PM 82.4 °F 37.4 °F 20% 29.95 in 4.3 mi ESE 9.2 mph - N/A   Clear
6:00 PM 78.8 °F 37.4 °F 23% 29.95 in 4.3 mi SE 8.1 mph - N/A   Clear
7:00 PM 77.0 °F 37.4 °F 24% 29.95 in - SSE 4.6 mph - N/A   Clear
8:00 PM 73.4 °F 37.4 °F 27% 29.98 in - South 3.5 mph - N/A   Clear
9:00 PM 69 °F 39 °F 22% 29.99 in 6 mi South 3.5 mph - -  
9:00 PM 69.8 °F 39.2 °F 33% 29.98 in - South 3.5 mph - N/A   Clear
10:00 PM 68.0 °F 41.0 °F 37% 30.01 in - SSW 3.5 mph - N/A   Clear
11:00 PM 66.2 °F 44.6 °F 46% 30.01 in - South 4.6 mph - N/A   Clear